INMARSAT 6-F1

Last updated on Fri Jun 19 2026 17:09:34 GMT+0000 (Coordinated Universal Time)

1 50319U 21128A 26169.84022277 -.00000178 00000+0 00000+0 0 9993 2 50319 0.0186 327.5438 0000303 244.7765 80.9907 1.00270212 16272
UTC large
Height (km)
Speed (km/s)
/
Latitude / Longitude
Inclination (degrees)
Orbital Period (minutes)
Azimuth
Elevation
Range (km)
Doppler Factor

Next 0 passes for location: London (51.5072 / 0.1276)

No passes found over London.
INMARSAT 6-F1